TimeEDT,TemperatureF,Dew PointF,Humidity,Sea Level PressureIn,VisibilityMPH,Wind Direction,Wind SpeedMPH,Gust SpeedMPH,PrecipitationIn,Events,Conditions,WindDirDegrees,DateUTC
12:53 AM,48.9,46.0,90,30.39,7.0,Calm,Calm,-,N/A,,Partly Cloudy,0,2013-10-14 04:53:00
1:53 AM,48.0,46.0,93,30.38,7.0,Calm,Calm,-,N/A,,Partly Cloudy,0,2013-10-14 05:53:00
2:07 AM,46.4,44.6,93,30.37,6.0,Calm,Calm,-,N/A,,Mostly Cloudy,0,2013-10-14 06:07:00
2:53 AM,48.0,46.0,93,30.38,8.0,Calm,Calm,-,N/A,,Overcast,0,2013-10-14 06:53:00
3:15 AM,48.2,44.6,87,30.36,6.0,Calm,Calm,-,N/A,,Scattered Clouds,0,2013-10-14 07:15:00
3:53 AM,46.9,45.0,93,30.38,1.5,Calm,Calm,-,N/A,,Clear,0,2013-10-14 07:53:00
3:59 AM,46.4,44.6,93,30.36,3.0,Calm,Calm,-,N/A,,Clear,0,2013-10-14 07:59:00
4:40 AM,46.4,44.6,93,30.36,8.0,Calm,Calm,-,N/A,,Mostly Cloudy,0,2013-10-14 08:40:00
4:53 AM,46.9,45.0,93,30.38,10.0,Calm,Calm,-,N/A,,Overcast,0,2013-10-14 08:53:00
5:45 AM,46.4,44.6,93,30.36,9.0,Calm,Calm,-,N/A,,Scattered Clouds,0,2013-10-14 09:45:00
5:53 AM,46.9,44.1,90,30.38,9.0,Calm,Calm,-,N/A,,Partly Cloudy,0,2013-10-14 09:53:00
6:53 AM,45.0,43.0,93,30.38,9.0,Calm,Calm,-,N/A,,Clear,0,2013-10-14 10:53:00
7:53 AM,46.0,44.1,93,30.39,7.0,Calm,Calm,-,N/A,,Clear,0,2013-10-14 11:53:00
8:53 AM,52.0,48.0,86,30.39,10.0,Calm,Calm,-,N/A,,Clear,0,2013-10-14 12:53:00
9:37 AM,57.2,46.4,67,30.38,10.0,NNE,4.6,-,N/A,,Mostly Cloudy,20,2013-10-14 13:37:00
9:53 AM,57.9,46.9,67,30.40,10.0,NE,5.8,-,N/A,,Overcast,50,2013-10-14 13:53:00
10:53 AM,57.9,46.9,67,30.38,10.0,Calm,Calm,-,N/A,,Mostly Cloudy,0,2013-10-14 14:53:00
11:09 AM,59.0,46.4,63,30.36,10.0,NE,4.6,-,N/A,,Scattered Clouds,50,2013-10-14 15:09:00
11:53 AM,59.0,46.9,64,30.36,10.0,NE,4.6,-,N/A,,Clear,40,2013-10-14 15:53:00
12:53 PM,62.1,46.9,58,30.34,10.0,Calm,Calm,-,N/A,,Clear,0,2013-10-14 16:53:00
1:53 PM,64.0,46.0,52,30.31,10.0,Calm,Calm,-,N/A,,Clear,0,2013-10-14 17:53:00
2:53 PM,64.9,44.1,47,30.29,10.0,Calm,Calm,-,N/A,,Clear,0,2013-10-14 18:53:00
3:53 PM,68.0,45.0,43,30.27,10.0,ENE,3.5,-,N/A,,Clear,70,2013-10-14 19:53:00
4:53 PM,66.9,44.1,44,30.27,10.0,South,3.5,-,N/A,,Clear,180,2013-10-14 20:53:00
5:53 PM,64.0,46.9,54,30.28,10.0,SSE,6.9,-,N/A,,Clear,160,2013-10-14 21:53:00
6:53 PM,60.1,48.0,64,30.30,10.0,Variable,3.5,-,N/A,,Clear,0,2013-10-14 22:53:00
7:53 PM,55.9,48.9,77,30.30,10.0,Calm,Calm,-,N/A,,Clear,0,2013-10-14 23:53:00
8:53 PM,55.0,48.9,80,30.30,10.0,Calm,Calm,-,N/A,,Clear,0,2013-10-15 00:53:00
9:53 PM,53.1,48.0,83,30.30,10.0,Calm,Calm,-,N/A,,Clear,0,2013-10-15 01:53:00
10:53 PM,51.1,48.0,89,30.31,10.0,Calm,Calm,-,N/A,,Clear,0,2013-10-15 02:53:00
11:53 PM,50.0,48.0,93,30.30,10.0,Calm,Calm,-,N/A,,Clear,0,2013-10-15 03:53:00